Stevens Point, WI

3:59 PM CST on February 19, 2018 (GMT -0600)
Stevens Point Municipal

Weather History for KSTE - March, 2013

Change the Weather History Date:

Wednesday, March 20, 2013

  Actual Average Record
Temperature  
Mean Temperature 9 °F -  
Max Temperature 16 °F 41 °F 77 °F (2012)
Min Temperature 3 °F 24 °F -13 °F (1965)
Degree Days  
Heating Degree Days 56    
Moisture  
Dew Point -2 °F    
Average Humidity 60    
Maximum Humidity 73    
Minimum Humidity 50    
Precipitation  
Precipitation 0.00 in - - ()
Sea Level Pressure  
Sea Level Pressure 30.00 in    
Wind  
Wind Speed 10 mph (West)    
Max Wind Speed 15 mph    
Max Gust Speed 24 mph    
Visibility 10 miles    
Events      
Averages and records for this station are not official NWS values.
T = Trace of Precipitation, MM = Missing Value Source: NWS Daily Summary

Daily Weather History Graph

Daily Weather History Graph

Search for Another Location

Airport or City:

Trip Planner

Search our weather history database for the weather conditions in past years. The results will help you decide how hot, cold, wet, or windy it might be!

Date:

Astronomy

Mar. 20, 2013 Rise Set
Actual Time 7:00 AM CDT 7:10 PM CDT
Civil Twilight 6:31 AM CDT 7:39 PM CDT
Nautical Twilight 5:57 AM CDT 8:14 PM CDT
Astronomical Twilight 5:22 AM CDT 8:49 PM CDT
Moon 12:33 PM CDT (3/20) 2:53 AM CDT (3/20)
Length of Visible Light 13h 08m
Length of Day
12h 10m
First Quarter, 59% of the Moon is Illuminated
Mar 20
First Quarter
Mar 27
Full
Apr 2
Last Quarter
Apr 10
New
Apr 18
First Quarter

Hourly Weather History & Observations

Time (CDT) Temp. Windchill Dew Point Humidity Pressure Visibility Wind Dir Wind Speed Gust Speed Precip Events Conditions
12:15 AM 13.1 °F -0.7 °F 0.3 °F 57% 29.97 in 10.0 mi West 11.5 mph 21.9 mph N/A   Clear
12:35 AM 12.7 °F -1.1 °F -0.0 °F 57% 29.96 in 10.0 mi West 11.5 mph 17.3 mph N/A   Clear
12:55 AM 12.2 °F -1.8 °F -0.4 °F 57% 29.97 in 10.0 mi West 11.5 mph 18.4 mph N/A   Clear
1:15 AM 11.7 °F -2.5 °F -0.8 °F 58% 29.96 in 10.0 mi West 11.5 mph 17.3 mph N/A   Clear
1:35 AM 11.1 °F -1.6 °F -1.3 °F 57% 29.97 in 10.0 mi West 9.2 mph 17.3 mph N/A   Clear
1:55 AM 10.4 °F -2.4 °F -1.8 °F 58% 29.98 in 10.0 mi WNW 9.2 mph 19.6 mph N/A   Clear
2:15 AM 9.9 °F -3.1 °F -2.4 °F 58% 29.98 in 10.0 mi West 9.2 mph - N/A   Clear
2:35 AM 9.3 °F -4.6 °F -3.1 °F 57% 29.98 in 10.0 mi West 10.4 mph 16.1 mph N/A   Clear
2:55 AM 8.6 °F -3.7 °F -3.5 °F 58% 29.97 in 10.0 mi West 8.1 mph - N/A   Clear
3:15 AM 8.2 °F -3.0 °F -4.0 °F 58% 29.98 in 10.0 mi WNW 6.9 mph - N/A   Clear
3:35 AM 7.9 °F -3.5 °F -4.2 °F 58% 29.98 in 10.0 mi WNW 6.9 mph - N/A   Clear
3:55 AM 7.3 °F -5.2 °F -4.5 °F 58% 29.98 in 10.0 mi West 8.1 mph - N/A   Clear
4:15 AM 6.8 °F -4.8 °F -4.9 °F 59% 29.98 in 10.0 mi West 6.9 mph - N/A   Clear
4:35 AM 6.4 °F -7.3 °F -4.9 °F 60% 29.98 in 10.0 mi West 9.2 mph - N/A   Clear
4:55 AM 5.9 °F -8.0 °F -5.3 °F 60% 29.98 in 10.0 mi West 9.2 mph - N/A   Clear
5:15 AM 5.5 °F -8.4 °F -5.4 °F 61% 29.98 in 10.0 mi West 9.2 mph 16.1 mph N/A   Clear
5:35 AM 5.0 °F -8.1 °F -5.8 °F 61% 29.99 in 10.0 mi WNW 8.1 mph - N/A   Clear
5:55 AM 4.5 °F -8.7 °F -6.2 °F 62% 29.99 in 10.0 mi West 8.1 mph - N/A   Clear
6:15 AM 4.1 °F -10.2 °F -6.3 °F 62% 29.99 in 10.0 mi West 9.2 mph 16.1 mph N/A   Clear
6:35 AM 3.6 °F -10.9 °F -6.7 °F 62% 30.00 in 10.0 mi West 9.2 mph 16.1 mph N/A   Clear
6:55 AM 3.2 °F -12.2 °F -6.9 °F 63% 30.00 in 10.0 mi West 10.4 mph 16.1 mph N/A   Clear
7:15 AM 3.0 °F -13.3 °F -6.9 °F 63% 30.00 in 10.0 mi West 11.5 mph 20.7 mph N/A   Clear
7:35 AM 3.0 °F -11.5 °F -7.2 °F 62% 30.00 in 10.0 mi West 9.2 mph 16.1 mph N/A   Clear
7:55 AM 3.0 °F -12.5 °F -7.6 °F 61% 30.00 in 10.0 mi West 10.4 mph 16.1 mph N/A   Clear
8:15 AM 3.6 °F -12.6 °F -7.1 °F 61% 30.00 in 10.0 mi West 11.5 mph 19.6 mph N/A   Clear
8:35 AM 3.9 °F -10.4 °F -7.1 °F 60% 30.00 in 10.0 mi West 9.2 mph 18.4 mph N/A   Clear
8:55 AM 4.6 °F -11.3 °F -6.7 °F 59% 30.00 in 10.0 mi West 11.5 mph 18.4 mph N/A   Clear
9:15 AM 5.5 °F -10.2 °F -6.2 °F 59% 30.00 in 10.0 mi West 11.5 mph 17.3 mph N/A   Clear
9:35 AM 5.9 °F -10.5 °F -5.8 °F 59% 30.00 in 10.0 mi WNW 12.7 mph 21.9 mph N/A   Clear
9:55 AM 6.8 °F -7.8 °F -5.1 °F 58% 30.00 in 10.0 mi WNW 10.4 mph 16.1 mph N/A   Clear
10:15 AM 7.3 °F -10.0 °F -5.1 °F 57% 30.00 in 10.0 mi WNW 15.0 mph 19.6 mph N/A   Clear
10:35 AM 7.5 °F -6.9 °F -4.5 °F 58% 29.99 in 10.0 mi West 10.4 mph 20.7 mph N/A   Clear
10:55 AM 8.4 °F -8.6 °F -4.2 °F 57% 30.00 in 10.0 mi West 15.0 mph 19.6 mph N/A   Clear
11:15 AM 8.8 °F -5.3 °F -3.8 °F 57% 30.00 in 10.0 mi WNW 10.4 mph 23.0 mph N/A   Clear
11:55 AM 9.9 °F -5.5 °F -3.3 °F 55% 30.00 in 10.0 mi West 12.7 mph 20.7 mph N/A   Clear
12:15 PM 10.6 °F -3.8 °F -2.7 °F 55% 30.00 in 10.0 mi West 11.5 mph 19.6 mph N/A   Scattered Clouds
12:55 PM 11.7 °F -0.9 °F -2.2 °F 54% 30.00 in 10.0 mi WNW 9.2 mph 16.1 mph N/A   Scattered Clouds
1:35 PM 12.2 °F -3.1 °F -1.8 °F 53% 30.00 in 10.0 mi NW 13.8 mph 24.2 mph N/A   Scattered Clouds
1:55 PM 13.1 °F -1.4 °F -1.3 °F 53% 29.99 in 10.0 mi West 12.7 mph 20.7 mph N/A   Clear
2:15 PM 13.6 °F -1.3 °F -1.1 °F 52% 29.98 in 10.0 mi West 13.8 mph 19.6 mph N/A   Clear
2:35 PM 14.0 °F 0.5 °F -0.6 °F 52% 29.98 in 10.0 mi WNW 11.5 mph 19.6 mph N/A   Scattered Clouds
2:55 PM 14.7 °F 0.1 °F -0.2 °F 52% 29.98 in 10.0 mi West 13.8 mph 20.7 mph N/A   Clear
3:15 PM 14.5 °F -0.7 °F -0.4 °F 52% 29.98 in 10.0 mi West 15.0 mph 20.7 mph N/A   Scattered Clouds
3:35 PM 15.3 °F 4.4 °F -0.2 °F 50% 29.98 in 10.0 mi WNW 8.1 mph 23.0 mph N/A   Scattered Clouds
3:55 PM 15.4 °F 0.4 °F 0.1 °F 51% 29.98 in 10.0 mi West 15.0 mph 19.6 mph N/A   Mostly Cloudy
4:15 PM 15.4 °F 3.0 °F 0.5 °F 52% 29.98 in 10.0 mi West 10.4 mph 20.7 mph N/A   Mostly Cloudy
4:55 PM 15.6 °F 0.6 °F 0.7 °F 52% 29.98 in 10.0 mi WSW 15.0 mph 20.7 mph N/A   Scattered Clouds
5:15 PM 15.8 °F 2.7 °F 0.9 °F 52% 29.99 in 10.0 mi WNW 11.5 mph 19.6 mph N/A   Scattered Clouds
5:35 PM 15.4 °F 3.0 °F 1.2 °F 54% 29.99 in 10.0 mi West 10.4 mph 17.3 mph N/A   Scattered Clouds
5:55 PM 15.1 °F 2.5 °F 1.4 °F 55% 29.99 in 10.0 mi West 10.4 mph 16.1 mph N/A   Scattered Clouds
6:15 PM 14.9 °F 2.3 °F 1.8 °F 56% 30.00 in 10.0 mi West 10.4 mph 21.9 mph N/A   Scattered Clouds
6:35 PM 14.4 °F -0.4 °F 1.8 °F 57% 30.00 in 10.0 mi West 13.8 mph 18.4 mph N/A   Clear
6:55 PM 13.1 °F 1.8 °F 1.9 °F 61% 30.00 in 10.0 mi West 8.1 mph 19.6 mph N/A   Clear
7:15 PM 12.2 °F -1.0 °F 2.1 °F 64% 30.00 in 10.0 mi West 10.4 mph - N/A   Clear
7:55 PM 11.1 °F 0.4 °F 2.1 °F 67% 30.01 in 10.0 mi West 6.9 mph - N/A   Clear
8:15 PM 10.9 °F 2.9 °F 2.1 °F 68% 30.01 in 10.0 mi West 4.6 mph - N/A   Clear
8:35 PM 10.4 °F 4.0 °F 1.6 °F 68% 30.02 in 10.0 mi West 3.5 mph - N/A   Clear
8:55 PM 10.0 °F 1.8 °F 1.4 °F 68% 30.02 in 10.0 mi West 4.6 mph - N/A   Scattered Clouds
9:15 PM 9.5 °F 1.2 °F 1.4 °F 70% 30.03 in 10.0 mi West 4.6 mph - N/A   Scattered Clouds
9:35 PM 9.1 °F 2.6 °F 1.0 °F 70% 30.03 in 10.0 mi West 3.5 mph - N/A   Clear
9:55 PM 9.0 °F 0.6 °F 1.0 °F 70% 30.02 in 10.0 mi West 4.6 mph - N/A   Clear
10:15 PM 8.4 °F - 0.7 °F 71% 30.03 in 10.0 mi Calm Calm - N/A   Clear
10:35 PM 7.7 °F 1.0 °F 0.3 °F 72% 30.03 in 10.0 mi West 3.5 mph - N/A   Clear
10:55 PM 7.5 °F 0.8 °F 0.1 °F 72% 30.03 in 10.0 mi West 3.5 mph - N/A   Clear
11:15 PM 6.8 °F -0.1 °F -0.4 °F 72% 30.03 in 10.0 mi West 3.5 mph - N/A   Clear
11:35 PM 6.6 °F - -0.4 °F 73% 30.03 in 10.0 mi Calm Calm - N/A   Mostly Cloudy
11:55 PM 6.6 °F -0.3 °F -0.6 °F 72% 30.03 in 10.0 mi West 3.5 mph - N/A   Overcast